Weather History for KLYH - October, 2012

Change the Weather History Date:

Tuesday, October 30, 2012

  Actual Average Record
Temperature  
Mean Temperature 40 °F 52 °F  
Max Temperature 44 °F 65 °F 85 °F (1937)
Min Temperature 36 °F 40 °F 21 °F (1965)
Degree Days  
Heating Degree Days 25 13  
Month to date heating degree days 254 272  
Since 1 July heating degree days 300 333  
Cooling Degree Days 0 0  
Month to date cooling degree days 11 11  
Year to date cooling degree days 1244 1027  
Moisture  
Dew Point 29 °F    
Average Humidity 68    
Maximum Humidity 82    
Minimum Humidity 53    
Precipitation  
Precipitation T in 0.11 in 2.13 in (1970)
Month to date precipitation 1.67 3.00  
Year to date precipitation 26.57 34.81  
Snow  
Snow 0.00 in - - ()
Month to date snowfall 0.0  
Since 1 July snowfall 0.0  
Since 1 September snowfall 0.0  
Snow Depth 0.00 in    
Sea Level Pressure  
Sea Level Pressure 29.32 in    
Wind  
Wind Speed 10 mph (West)    
Max Wind Speed 18 mph    
Max Gust Speed 33 mph    
Visibility 10 miles    
Events Rain    
T = Trace of Precipitation, MM = Missing Value Source: NWS Daily Summary

Daily Weather History Graph

Daily Weather History Graph

Search for Another Location

Airport or City:

Trip Planner

Search our weather history database for the weather conditions in past years. The results will help you decide how hot, cold, wet, or windy it might be!

Date:

Astronomy

Oct. 30, 2012 Rise Set
Actual Time 7:39 AM EDT 6:20 PM EDT
Civil Twilight 7:12 AM EDT 6:47 PM EDT
Nautical Twilight 6:42 AM EDT 7:18 PM EDT
Astronomical Twilight 6:11 AM EDT 7:48 PM EDT
Moon 6:50 PM EDT (10/30) 8:23 AM EDT (10/30)
Length of Visible Light 11h 34m
Length of Day
10h 40m
Full, 99% of the Moon is Illuminated
Oct 30
Full
Nov 6
Last Quarter
Nov 13
New
Nov 20
First Quarter
Nov 28
Full

Hourly Weather History & Observations

Time (EDT) Temp. Windchill Dew Point Humidity Pressure Visibility Wind Dir Wind Speed Gust Speed Precip Events Conditions
12:54 AM 43.0 °F 36.0 °F 30.0 °F 60% 29.11 in 10.0 mi West 13.8 mph 31.1 mph 0.00 in   Overcast
1:54 AM 43.0 °F 37.7 °F 28.9 °F 58% 29.11 in 10.0 mi West 9.2 mph 23.0 mph N/A   Overcast
2:54 AM 42.1 °F 36.1 °F 28.9 °F 60% 29.12 in 10.0 mi West 10.4 mph 21.9 mph 0.00 in   Overcast
3:54 AM 41.0 °F 34.3 °F 30.0 °F 65% 29.13 in 10.0 mi West 11.5 mph 26.5 mph N/A   Overcast
4:54 AM 41.0 °F 35.2 °F 28.0 °F 60% 29.14 in 10.0 mi West 9.2 mph 21.9 mph N/A   Overcast
5:54 AM 39.0 °F 29.9 °F 30.0 °F 70% 29.18 in 10.0 mi West 17.3 mph 28.8 mph 0.00 in Rain Light Rain
6:54 AM 39.0 °F 32.8 °F 30.0 °F 70% 29.20 in 10.0 mi WSW 9.2 mph 19.6 mph 0.00 in Rain Light Rain
7:54 AM 37.0 °F 29.8 °F 32.0 °F 82% 29.23 in 10.0 mi WSW 10.4 mph 18.4 mph 0.00 in Rain Light Rain
8:54 AM 37.0 °F 28.9 °F 32.0 °F 82% 29.25 in 10.0 mi West 12.7 mph 19.6 mph 0.00 in Rain Light Rain
9:54 AM 37.9 °F 30.5 °F 30.9 °F 76% 29.29 in 10.0 mi WSW 11.5 mph 23.0 mph 0.00 in Rain Light Rain
10:54 AM 39.9 °F 32.5 °F 28.9 °F 65% 29.30 in 10.0 mi West 12.7 mph 23.0 mph 0.00 in   Overcast
11:54 AM 42.1 °F 35.2 °F 28.9 °F 60% 29.33 in 10.0 mi WSW 12.7 mph 26.5 mph N/A   Overcast
12:54 PM 43.0 °F 36.0 °F 27.0 °F 53% 29.34 in 10.0 mi West 13.8 mph 28.8 mph N/A   Mostly Cloudy
1:54 PM 43.0 °F 37.7 °F 28.0 °F 56% 29.35 in 10.0 mi West 9.2 mph 24.2 mph N/A   Overcast
2:54 PM 44.1 °F 37.7 °F 28.0 °F 53% 29.37 in 10.0 mi WSW 12.7 mph 21.9 mph N/A   Mostly Cloudy
3:54 PM 44.1 °F 37.7 °F 28.0 °F 53% 29.39 in 10.0 mi WSW 12.7 mph 23.0 mph N/A   Overcast
4:54 PM 43.0 °F 37.7 °F 28.0 °F 56% 29.42 in 10.0 mi West 9.2 mph 20.7 mph N/A   Overcast
5:54 PM 43.0 °F 39.5 °F 28.0 °F 56% 29.44 in 10.0 mi Variable 5.8 mph 21.9 mph N/A   Overcast
6:54 PM 43.0 °F 38.2 °F 28.0 °F 56% 29.47 in 10.0 mi West 8.1 mph - N/A   Overcast
7:54 PM 43.0 °F 38.8 °F 28.9 °F 58% 29.48 in 10.0 mi Variable 6.9 mph - N/A   Mostly Cloudy
8:54 PM 43.0 °F 38.2 °F 28.9 °F 58% 29.50 in 10.0 mi West 8.1 mph 23.0 mph N/A   Clear
9:54 PM 43.0 °F 38.8 °F 30.0 °F 60% 29.51 in 10.0 mi Variable 6.9 mph 19.6 mph N/A   Clear
10:54 PM 43.0 °F 38.2 °F 30.0 °F 60% 29.52 in 10.0 mi West 8.1 mph - N/A   Mostly Cloudy
11:54 PM 43.0 °F 37.2 °F 30.0 °F 60% 29.51 in 10.0 mi West 10.4 mph - N/A   Clear